Theta_e
311 314 316 317 315 316 313 313 314 314 314 313 313 313 313 313 313 313 313 313 313 313 311 311 311 312 312 312 312 311 310 311 311 311 311 312 313 314 315 315 315 316 315 312
312 315 316 312 312 312 313 313 314 315 313 310 313 313 313 313 313 313 313 312 312 311 310 309 309 311 311 311 311 310 310 310 310 310 310 310 311 312 314 315 316 316 316 314
316 316 313 311 313 313 314 313 315 315 313 312 311 316 314 315 311 312 311 311 310 309 308 307 309 309 310 310 310 310 309 308 309 309 308 308 309 310 311 312 313 315 316 316
313 310 311 311 312 313 314 314 312 312 312 317 311 318 317 316 314 313 312 311 309 308 306 304 304 307 307 308 308 308 308 308 307 306 305 306 307 308 309 310 311 312 314 316
314 311 310 312 313 311 314 309 309 309 312 311 314 313 318 312 313 313 311 308 308 305 303 303 302 304 305 306 309 308 307 305 305 304 303 304 304 304 304 305 306 307 308 312
312 306 309 312 309 309 307 310 309 310 312 316 315 314 316 315 313 312 308 305 303 302 302 301 302 303 305 306 306 306 305 304 303 303 302 302 302 302 303 303 303 303 304 306
314 310 309 307 311 308 309 312 319 318 319 319 312 312 314 314 309 308 306 303 301 301 301 301 302 303 302 302 303 304 304 304 304 302 301 301 301 301 300 301 301 301 302 303
318 320 311 308 313 318 312 314 318 319 321 320 308 315 316 311 306 303 302 300 299 299 299 300 301 300 299 300 301 301 302 302 302 302 302 302 301 300 300 301 301 301 300 301
321 320 307 306 307 310 311 311 312 315 315 315 315 315 315 313 306 303 300 299 297 297 297 297 298 299 300 299 298 298 299 299 300 300 300 302 302 302 302 301 300 299 300 300
315 319 316 311 306 307 309 310 313 312 315 318 314 314 315 313 308 302 299 297 296 295 295 295 296 296 295 296 298 298 298 297 297 298 300 299 300 301 301 302 302 300 299 300
313 316 316 311 313 313 311 310 309 309 312 316 317 315 310 309 303 300 297 295 295 295 295 295 294 295 295 293 293 294 297 297 299 298 296 298 298 298 300 300 301 302 301 299
312 312 315 315 313 309 311 312 313 316 315 314 314 314 304 302 299 296 293 293 293 293 293 293 294 292 294 292 291 291 291 293 292 292 295 296 296 297 297 297 298 300 301 302
313 315 316 315 312 310 312 312 312 313 314 316 317 315 301 299 298 296 297 294 293 292 290 291 293 291 290 290 289 289 289 288 288 289 289 290 292 293 296 296 295 295 297 299
309 312 314 314 313 311 312 311 311 311 313 313 313 312 310 305 301 298 295 293 293 291 289 289 291 291 289 289 288 288 288 288 287 287 287 288 288 288 289 290 293 294 294 295
308 312 311 311 311 311 311 311 310 310 309 309 309 309 308 308 300 295 292 291 293 289 289 289 289 291 289 288 287 287 287 286 286 286 286 286 286 286 287 287 288 289 291 292
305 307 306 306 306 306 307 307 307 305 304 304 303 304 303 294 292 292 291 290 292 289 289 289 288 289 289 288 286 286 286 285 285 285 286 285 285 285 285 286 286 286 286 287
303 304 305 305 305 303 303 302 302 302 303 302 302 300 294 292 292 292 291 290 291 289 289 289 288 288 289 288 286 286 286 285 285 285 285 285 285 285 285 285 285 285 285 285
301 302 303 303 301 302 301 298 298 299 300 296 294 292 293 292 291 292 290 290 290 289 289 289 288 288 288 287 286 285 285 285 285 284 284 285 285 285 285 285 285 285 285 285
298 299 301 300 300 299 298 297 297 297 298 295 295 292 291 290 291 291 291 290 290 289 289 288 288 287 287 286 285 285 285 284 284 284 284 283 283 284 284 285 285 285 285 285
294 297 298 292 296 295 295 293 292 292 295 293 291 291 290 290 290 291 290 289 289 288 289 288 288 287 287 286 285 284 283 282 282 281 281 281 281 282 283 283 284 284 284 284
291 292 295 296 296 295 293 291 292 293 294 292 290 290 290 290 290 290 290 289 289 289 289 288 287 286 285 284 281 281 281 281 279 278 278 278 277 277 278 278 281 281 282 283
291 292 291 288 292 292 290 290 292 292 291 290 290 290 290 290 289 289 289 289 289 289 288 286 285 284 284 282 280 281 281 278 276 275 275 275 274 273 273 273 275 276 277 279
291 292 292 290 292 291 290 291 290 290 290 290 290 290 290 289 289 289 289 288 288 286 285 283 281 281 283 281 277 276 278 275 275 275 274 273 271 269 268 268 269 269 271 273
291 291 291 291 291 291 291 290 290 290 290 290 289 289 289 288 288 288 287 286 285 284 283 281 280 281 281 278 276 275 275 273 271 270 269 266 265 265 264 264 265 266 267 269
291 290 290 291 291 290 290 290 290 290 290 289 289 288 288 287 286 285 284 283 282 280 279 278 277 277 277 276 275 273 271 268 266 265 264 263 262 262 262 263 263 264 265 267
291 291 291 291 291 290 290 290 290 289 289 288 288 287 286 285 284 283 282 280 279 278 277 277 276 275 275 274 273 271 267 264 263 262 262 262 262 262 262 262 262 264 265 267
Wind_Speed
5 6 11 17 18 19 10 14 18 23 20 16 20 19 18 31 30 33 32 22 20 18 17 19 20 17 14 13 13 16 19 21 29 33 38 43 49 51 53 54 53 52 52 51
5 11 19 4 6 11 13 14 21 16 15 3 14 19 23 18 17 19 18 17 13 13 19 25 28 25 21 19 17 15 14 16 22 27 31 34 39 45 48 53 57 56 55 54
16 11 6 8 12 14 13 14 17 16 13 13 11 13 5 9 13 7 6 5 11 18 23 27 29 28 26 24 20 15 15 15 15 19 25 28 35 38 40 45 48 54 55 55
7 2 5 7 11 12 13 10 15 11 6 10 8 11 8 7 9 3 10 19 16 20 21 22 25 30 32 29 25 20 14 12 12 14 18 24 26 32 35 39 41 46 49 53
2 6 5 5 7 9 5 2 2 1 6 7 3 7 1 2 2 7 14 17 18 19 21 24 26 29 31 32 31 24 22 19 15 12 12 16 19 21 24 29 31 33 37 49
11 2 4 4 2 3 4 1 1 0 3 8 4 7 3 3 3 6 13 15 16 18 20 23 25 30 35 32 29 29 28 24 19 15 13 11 14 18 22 25 28 30 30 33
3 5 3 4 6 2 5 3 7 6 6 12 4 6 8 7 8 7 10 13 19 19 22 27 32 31 31 32 31 30 28 28 25 20 15 11 11 13 19 19 22 24 28 30
9 16 8 7 9 6 9 7 6 8 15 17 6 10 8 11 15 16 17 17 18 20 22 26 26 27 28 29 31 31 29 28 27 27 23 18 16 14 14 16 20 21 24 26
11 15 3 4 1 2 6 7 3 7 6 8 16 23 17 9 11 12 14 14 17 19 18 19 21 23 25 26 28 28 29 29 28 27 27 26 21 17 17 18 19 20 21 23
2 9 3 2 2 5 8 3 8 5 8 20 17 20 13 7 5 7 9 11 12 13 15 16 17 18 20 21 22 24 26 27 28 28 28 28 27 25 20 19 19 20 19 20
6 7 16 3 9 19 10 8 6 5 6 7 10 13 7 3 4 5 5 8 12 15 16 16 16 15 18 21 24 24 23 26 28 28 28 26 27 28 25 24 21 21 23 22
10 4 9 22 13 5 4 12 14 10 11 13 14 18 2 3 6 6 4 2 3 7 12 13 14 17 18 20 23 23 25 25 25 25 24 25 26 26 27 28 27 25 20 24
2 4 5 6 6 3 6 8 16 16 4 13 9 3 7 6 6 4 2 4 2 3 8 10 11 15 16 18 20 21 22 25 26 25 26 26 25 25 25 27 27 27 29 27
3 5 13 17 18 12 9 9 12 14 8 14 17 24 20 11 6 3 4 3 3 2 6 10 10 12 15 17 20 23 24 27 31 30 28 29 30 29 28 27 27 27 28 28
4 7 14 13 15 17 17 15 18 20 17 10 21 20 20 16 6 4 3 4 4 5 9 10 11 11 13 14 18 19 21 25 28 31 32 33 32 31 33 32 31 30 28 30
3 7 15 23 22 20 19 18 21 19 20 23 26 27 19 3 3 5 4 6 7 8 12 14 14 13 14 16 19 22 23 24 24 26 29 34 38 40 36 36 36 37 36 34
9 6 9 20 13 14 11 17 19 21 24 24 23 14 5 1 4 7 7 9 10 10 15 18 19 20 18 20 26 26 29 30 29 28 29 33 37 41 43 43 42 41 42 40
11 12 7 13 9 20 14 5 11 18 18 5 2 4 3 5 8 9 12 14 16 12 14 19 20 23 24 29 31 31 34 34 35 36 36 37 37 39 43 46 47 48 49 48
19 14 8 9 15 21 23 16 12 12 18 7 7 4 4 5 7 16 17 18 20 17 17 23 28 30 33 34 35 39 42 42 42 43 44 44 44 44 44 46 49 52 54 55
8 14 11 3 8 13 10 2 4 3 6 8 4 3 8 4 9 11 19 14 17 21 23 26 31 35 34 37 40 45 47 47 48 48 50 51 52 53 54 54 54 54 54 59
1 2 11 12 12 10 4 6 6 5 4 10 9 15 16 10 17 23 20 21 22 26 29 30 33 34 36 37 41 46 49 52 48 47 54 58 60 62 65 65 64 62 61 60
5 4 5 1 4 10 7 7 6 1 12 16 20 20 19 20 20 20 20 24 21 24 28 31 33 36 40 40 44 51 56 55 56 58 62 62 62 63 63 61 64 63 61 60
6 10 5 8 5 1 12 8 16 25 24 29 24 24 18 19 19 20 18 19 23 25 29 33 36 40 43 47 49 54 60 57 59 60 63 63 61 59 56 53 53 49 52 50
12 17 11 10 19 22 29 32 33 33 30 30 25 24 21 20 17 18 19 21 26 29 33 35 39 44 51 52 51 49 51 53 55 58 59 55 50 50 47 44 42 41 40 41
13 4 8 14 19 27 31 33 36 36 31 24 24 22 20 16 16 19 21 24 27 29 31 34 40 46 50 48 48 48 50 49 51 50 50 47 44 42 42 41 40 39 40 39
21 20 12 15 26 22 30 31 30 25 22 18 20 19 18 18 18 21 23 24 27 30 34 39 42 43 45 46 49 50 47 43 43 43 43 42 43 43 43 43 45 40 39 40
Wind_Direction
153 200 224 245 232 250 290 282 284 278 285 296 290 299 294 282 287 286 286 305 307 321 348 12 15 2 337 323 304 291 275 264 255 248 240 235 236 237 236 237 237 236 234 231
161 223 231 280 262 252 260 268 271 282 283 263 287 300 293 295 271 277 298 303 330 10 26 23 24 23 15 359 323 301 282 271 264 259 253 243 241 239 238 238 239 237 235 233
239 265 243 219 256 258 253 258 273 272 320 275 301 280 251 280 268 327 322 320 53 40 22 19 25 26 22 16 8 344 326 297 266 259 258 249 244 242 243 241 241 240 237 236
243 317 228 209 246 250 273 268 265 280 307 298 14 304 294 263 276 358 43 61 41 24 28 30 30 34 33 30 27 21 4 342 314 286 267 259 259 257 258 257 257 255 245 240
238 171 168 195 223 182 258 55 349 348 283 300 287 267 2 253 225 131 63 49 34 33 31 28 27 35 37 37 34 30 30 26 9 338 307 289 276 266 264 266 268 265 259 244
265 340 234 235 157 188 136 139 107 257 272 265 297 224 346 134 76 77 92 58 47 34 35 34 28 28 31 33 36 37 35 34 30 21 359 331 306 292 281 283 278 274 269 261
280 216 220 211 235 139 212 261 285 257 242 267 137 227 250 253 63 62 54 62 50 37 33 34 30 27 23 23 27 30 31 28 24 17 6 352 335 313 301 294 287 282 277 273
273 281 197 170 227 264 196 209 237 274 274 283 93 261 277 102 73 62 54 47 37 35 31 32 29 26 23 19 18 17 22 23 22 22 16 5 347 329 312 307 301 291 286 284
295 270 119 199 179 268 156 207 283 269 264 281 265 259 263 150 75 65 53 41 32 26 26 26 21 15 12 13 14 16 13 13 12 13 14 18 3 345 330 315 302 293 289 284
333 290 276 339 180 218 245 330 250 221 258 254 253 259 256 205 105 73 44 33 28 23 20 16 16 9 8 10 7 2 6 11 9 5 7 8 9 7 351 332 317 302 294 287
292 245 272 179 240 269 247 242 232 268 255 263 262 252 343 344 132 86 45 23 14 9 4 3 4 4 1 1 6 12 6 357 359 1 1 1 359 359 359 2 343 319 307 299
252 266 245 267 288 270 259 259 242 246 247 240 263 264 108 148 150 149 160 110 24 14 355 352 358 358 356 356 357 360 2 4 4 359 351 351 350 350 352 354 350 349 328 307
138 240 281 258 236 189 212 235 250 259 274 241 258 226 186 186 188 185 179 219 248 353 6 358 356 358 356 355 351 353 353 355 357 354 348 349 347 345 346 343 344 345 339 336
29 239 248 260 271 315 266 254 269 274 261 272 262 276 277 224 236 252 245 254 275 332 356 359 349 342 346 346 342 340 343 344 344 345 346 344 342 342 340 337 334 333 335 331
203 266 262 264 270 271 270 269 266 260 264 260 280 281 275 280 288 256 274 305 290 330 345 337 330 321 328 328 333 333 334 334 334 334 336 338 337 333 332 333 331 327 324 324
266 269 281 273 274 266 263 261 256 268 268 264 264 265 278 4 176 239 266 307 268 311 325 326 323 319 312 321 324 323 324 326 325 323 325 327 327 327 328 327 327 325 323 323
265 270 269 272 279 298 265 241 254 262 265 269 273 295 88 110 260 264 266 281 255 298 322 324 324 321 312 313 322 322 317 316 315 312 312 315 315 315 316 319 320 320 320 320
249 254 250 268 268 254 272 318 272 268 281 304 142 129 182 269 294 270 260 273 255 273 310 321 319 318 315 313 316 317 316 311 306 304 302 303 302 303 307 310 311 313 313 312
228 241 259 257 259 282 288 273 254 251 275 180 150 182 248 271 278 280 270 272 258 262 295 318 318 314 315 314 315 314 314 312 308 305 303 303 301 299 298 298 301 303 304 304
227 235 245 230 257 265 292 70 103 106 267 176 178 277 284 246 278 294 308 284 285 264 286 307 312 310 309 311 311 310 310 310 308 307 304 303 300 298 296 294 292 292 292 294
208 205 231 238 253 263 231 137 136 222 294 175 253 272 276 249 263 289 292 280 278 273 283 299 308 308 308 311 309 308 308 307 308 303 301 299 298 297 296 295 292 290 288 286
248 249 215 190 247 270 129 122 217 210 289 289 289 281 281 272 279 281 291 292 283 282 292 302 304 304 305 306 307 306 305 307 304 301 300 298 297 295 295 293 292 289 287 284
253 223 255 214 243 280 192 244 239 287 284 290 290 293 285 277 272 282 285 279 283 294 299 302 304 305 306 308 310 308 307 306 305 303 300 299 298 295 294 293 291 288 287 283
259 255 251 271 260 263 269 270 275 281 282 286 286 290 286 274 280 282 284 287 293 298 303 305 307 308 308 311 311 308 308 309 306 303 302 302 300 298 295 290 285 283 280 277
245 249 239 254 264 274 268 266 268 273 281 280 281 279 277 275 281 285 288 295 301 303 305 307 310 312 311 313 313 315 314 314 310 307 304 300 298 296 294 289 285 280 276 272
241 241 246 255 266 260 270 273 277 277 272 263 270 269 271 277 283 291 297 301 302 305 309 312 314 314 317 319 317 319 321 316 309 300 299 297 295 294 292 290 289 286 280 277